Location: *
(37.5724°S, 58.0067°E)
Time: 10:31:16
(UTC+00:00)

USA 229 DEB - Pass Details

Date: 07 December 2021
Orbit: 943 x 1269 km, 63.4° (Epoch: 14 January)

Event Time Altitude Azimuth Distance (km) Brightness Sun altitude
Rises 18:26:49 0° 271° (W) 4,181 7.1 -25.9°
Reaches altitude 10° 18:30:58 10° 251° (WSW) 3,173 6.7 -26.2°
Maximum altitude 18:35:34 17° 213° (SSW) 2,639 6.6 -26.6°
Drops below altitude 10° 18:40:02 10° 175° (S) 3,047 6.9 -26.9°
Sets 18:43:55 0° 155° (SSE) 3,940 7.3 -27.2°
